DW8425 Weather Reports


Display with metric or nautical units.
time (UTC)temp
F
wind
direction
speed
MPH
gust
MPH
rain 1hr
in
rain 24hr
in
rain mn
in
humidity
%
barometer
mb
20260504030057 52 360 0.0 2.0 0.00 0.00 0.00 36 1006.9
20260504024601 54 113 0.0 2.0 0.00 0.00 0.00 34 1006.7
20260504023052 58 360 0.0 1.0 0.00 0.00 0.00 30 1006.6
20260504021550 60 360 0.0 2.0 0.00 0.00 0.00 27 1006.7
20260504020050 61 323 0.0 4.0 0.00 0.00 0.00 23 1006.7
20260504014550 62 348 1.0 6.0 0.00 0.00 0.00 24 1006.8
20260504013050 63 348 0.0 5.0 0.00 0.00 0.00 23 1006.9
20260504011548 63 342 1.0 4.0 0.00 0.00 0.00 23 1007.1
20260504010053 64 298 1.0 9.0 0.00 0.00 0.00 22 1007.3
20260504004543 64 355 3.0 5.0 0.00 0.00 0.00 21 1007.5
20260504003041 64 64 0.0 9.0 0.00 0.00 0.00 21 1007.5
20260504001600 65 305 3.0 7.0 0.00 0.00 0.00 21 1007.5
20260504000043 65 307 4.0 12.0 0.00 0.00 0.00 21 1007.5
20260503234539 65 332 3.0 7.0 0.00 0.00 0.00 21 1007.7
20260503233038 65 146 2.0 6.0 0.00 0.00 0.00 21 1007.7
20260503231536 64 347 1.0 6.0 0.00 0.00 0.00 23 1007.9
20260503230040 65 286 0.0 7.0 0.00 0.00 0.00 23 1008.1
20260503224534 66 313 2.0 8.0 0.00 0.00 0.00 23 1008.3
20260503223033 66 232 1.0 11.0 0.00 0.00 0.00 23 1008.5
20260503221538 66 193 2.0 9.0 0.00 0.00 0.00 23 1008.5
20260503220030 66 296 1.0 6.0 0.00 0.00 0.00 23 1008.7
20260503214527 66 320 2.0 7.0 0.00 0.00 0.00 24 1009.0
20260503213031 66 318 3.0 8.0 0.00 0.00 0.00 24 1009.2
20260503211524 64 338 3.0 8.0 0.00 0.00 0.00 25 1009.4
20260503210022 65 271 1.0 7.0 0.00 0.00 0.00 26 1009.6
20260503204525 66 242 2.0 5.0 0.00 0.00 0.00 24 1009.7
20260503203019 65 313 2.0 6.0 0.00 0.00 0.00 26 1009.9
20260503201527 64 242 2.0 7.0 0.00 0.00 0.00 26 1010.0
20260503200017 64 150 4.0 8.0 0.00 0.00 0.00 25 1010.2
20260503194516 64 287 0.0 5.0 0.00 0.00 0.00 26 1010.4
20260503193012 64 185 1.0 4.0 0.00 0.00 0.00 25 1010.7
20260503191506 63 317 1.0 6.0 0.00 0.00 0.00 29 1011.1
20260503190007 62 195 1.0 6.0 0.00 0.00 0.00 30 1011.4
20260503184502 62 225 1.0 5.0 0.00 0.00 0.00 30 1011.7
20260503183110 62 306 2.0 7.0 0.00 0.00 0.00 31 1012.0
20260503181622 61 325 2.0 6.0 0.00 0.00 0.00 30 1012.0
20260503180124 61 324 2.0 4.0 0.00 0.00 0.00 32 1012.3
20260503174556 59 319 2.0 6.0 0.00 0.00 0.00 32 1012.5
20260503173055 58 323 1.0 4.0 0.00 0.00 0.00 34 1012.6
20260503171542 56 321 2.0 4.0 0.00 0.00 0.00 38 1012.8
20260503120108 27 126 0.0 0.0 0.00 0.00 0.00 85 1015.3
20260503081527 35 360 0.0 0.0 0.00 0.00 0.00 66 1015.0
20260503071525 37 360 0.0 1.0 0.00 0.00 0.00 62 1015.0
20260503054506 40 105 0.0 0.0 0.00 0.00 0.00 58 1014.7
20260503053006 41 105 0.0 1.0 0.00 0.00 0.00 54 1014.4
20260503051506 42 113 0.0 1.0 0.00 0.00 0.00 51 1014.3
20260503050005 44 81 0.0 1.0 0.00 0.00 0.00 49 1014.3
20260503044504 45 96 0.0 1.0 0.00 0.00 0.00 48 1014.2
20260503043003 46 360 0.0 1.0 0.00 0.00 0.00 45 1014.1
20260503041503 47 95 0.0 2.0 0.00 0.00 0.00 43 1014.0
20260503040002 47 88 0.0 2.0 0.00 0.00 0.00 44 1013.8
20260503034501 47 46 0.0 2.0 0.00 0.00 0.00 43 1013.5
20260503033001 48 84 0.0 2.0 0.00 0.00 0.00 43 1013.4
20260503031501 49 360 0.0 2.0 0.00 0.00 0.00 41 1013.3